Location: *
(60.1759°S, 155.0663°W)
Time: 21:23:55
(UTC+00:00)

Cosmos 2360 Rocket - Pass Details

Date: 17 September 2019
Orbit: 833 x 846 km, 71.0° (Epoch: 14 October)

Event Time Altitude Azimuth Distance (km) Brightness Sun altitude
Rises 14:40:02 0° 225° (SW) 3,442 5.1 -13.5°
Reaches altitude 10° 14:42:34 10° 220° (SW) 2,502 4.5 -13.2°
Maximum altitude 14:48:14 56° 141° (SE) 1,016 2.9 -12.5°
Drops below altitude 10° 14:53:50 10° 62° (ENE) 2,477 5.3 -11.9°
Sets 14:56:20 0° 58° (ENE) 3,405 6.0 -11.6°
